TimeCEST,TemperatureF,Dew PointF,Humidity,Sea Level PressureIn,VisibilityMPH,Wind Direction,Wind SpeedMPH,Gust SpeedMPH,PrecipitationIn,Events,Conditions,WindDirDegrees,DateUTC
12:25 AM,48.2,44.6,87,29.77,6.2,WNW,4.6,-,N/A,,Overcast,300,2013-05-17 22:25:00
1:25 AM,46.4,44.6,93,29.77,5.6,WNW,5.8,-,N/A,,Mostly Cloudy,290,2013-05-17 23:25:00
2:00 AM,47,44,87,29.78,7,WNW,6.7,,,,Clear,300,2013-05-18 00:00:00
2:25 AM,46.4,44.6,93,29.77,5.6,West,6.9,-,N/A,,Mostly Cloudy,270,2013-05-18 00:25:00
3:25 AM,46.4,44.6,93,29.77,6.2,West,4.6,-,N/A,,Mostly Cloudy,270,2013-05-18 01:25:00
3:31 AM,46.4,44.6,93,29.77,6.2,West,4.6,-,N/A,,Overcast,270,2013-05-18 01:31:00
3:37 AM,46.4,44.6,93,29.77,6.2,Variable,3.5,-,N/A,,Overcast,0,2013-05-18 01:37:00
4:25 AM,46.4,44.6,93,29.77,6.2,Variable,2.3,-,N/A,,Mostly Cloudy,0,2013-05-18 02:25:00
5:00 AM,46,44,91,29.79,6,,2.2,,,,Scattered Clouds,,2013-05-18 03:00:00
5:16 AM,46.4,44.6,93,29.77,6.2,Variable,3.5,-,N/A,,Mostly Cloudy,0,2013-05-18 03:16:00
5:25 AM,46.4,44.6,93,29.77,6.2,Variable,3.5,-,N/A,,Mostly Cloudy,0,2013-05-18 03:25:00
5:41 AM,46.4,44.6,93,29.77,5.6,Variable,3.5,-,N/A,,Overcast,0,2013-05-18 03:41:00
5:47 AM,46.4,44.6,93,29.77,4.3,Variable,3.5,-,N/A,,Mostly Cloudy,0,2013-05-18 03:47:00
6:25 AM,46.4,44.6,93,29.77,4.3,Variable,3.5,-,N/A,,Mostly Cloudy,0,2013-05-18 04:25:00
6:49 AM,46.4,44.6,93,29.77,5.0,Variable,3.5,-,N/A,,Overcast,0,2013-05-18 04:49:00
7:08 AM,46.4,44.6,93,29.77,4.3,Variable,2.3,-,N/A,,Overcast,0,2013-05-18 05:08:00
7:19 AM,46.4,44.6,93,29.77,5.0,Variable,2.3,-,N/A,,Mostly Cloudy,0,2013-05-18 05:19:00
7:25 AM,46.4,44.6,93,29.80,4.3,Variable,3.5,-,N/A,,Overcast,0,2013-05-18 05:25:00
7:54 AM,46.4,44.6,93,29.77,5.0,Variable,3.5,-,N/A,,Overcast,0,2013-05-18 05:54:00
8:00 AM,47,45,90,29.80,4,,4.5,,,,Overcast,,2013-05-18 06:00:00
8:00 AM,46.4,44.6,93,29.80,4.3,Variable,3.5,-,N/A,,Overcast,0,2013-05-18 06:00:00
8:06 AM,46.4,44.6,93,29.80,5.0,Variable,3.5,-,N/A,,Overcast,0,2013-05-18 06:06:00
8:25 AM,48.2,44.6,87,29.80,5.0,SW,4.6,-,N/A,,Mostly Cloudy,230,2013-05-18 06:25:00
9:25 AM,48.2,44.6,87,29.80,6.2,SW,4.6,-,N/A,,Mostly Cloudy,230,2013-05-18 07:25:00
10:25 AM,48.2,44.6,87,29.80,6.2,WSW,4.6,-,N/A,,Mostly Cloudy,240,2013-05-18 08:25:00
11:00 AM,50,44,75,29.81,7,,2.2,,,,Overcast,,2013-05-18 09:00:00
11:25 AM,50.0,44.6,82,29.80,6.2,Variable,3.5,-,N/A,,Mostly Cloudy,0,2013-05-18 09:25:00
11:31 AM,50.0,44.6,82,29.80,6.2,Variable,3.5,-,N/A,,Overcast,0,2013-05-18 09:31:00
11:37 AM,50.0,44.6,82,29.80,6.2,Variable,3.5,-,N/A,,Overcast,0,2013-05-18 09:37:00
12:25 PM,51.8,44.6,76,29.80,6.2,Variable,1.2,-,N/A,,Mostly Cloudy,0,2013-05-18 10:25:00
1:25 PM,51.8,41.0,67,29.80,6.2,Variable,2.3,-,N/A,,Mostly Cloudy,0,2013-05-18 11:25:00
2:00 PM,54,42,54,29.81,12,Calm,Calm,,,,Overcast,,2013-05-18 12:00:00
2:25 PM,55.4,42.8,63,29.77,6.2,Variable,2.3,-,N/A,,Mostly Cloudy,0,2013-05-18 12:25:00
3:25 PM,55.4,46.4,72,29.77,6.2,East,4.6,-,N/A,,Mostly Cloudy,100,2013-05-18 13:25:00
4:25 PM,55.4,46.4,72,29.77,6.2,NE,4.6,-,N/A,,Mostly Cloudy,50,2013-05-18 14:25:00
5:00 PM,56,45,58,29.79,9,NE,4.5,,,,Mostly Cloudy,50,2013-05-18 15:00:00
5:25 PM,55.4,46.4,72,29.77,6.2,NE,5.8,-,N/A,,Partly Cloudy,50,2013-05-18 15:25:00
6:25 PM,57.2,46.4,67,29.77,6.2,NE,8.1,-,N/A,,Partly Cloudy,50,2013-05-18 16:25:00
7:25 PM,57.2,46.4,67,29.77,6.2,NE,8.1,-,N/A,,Partly Cloudy,50,2013-05-18 17:25:00
8:00 PM,56,46,59,29.77,9,NNE,8.9,,,,Mostly Cloudy,30,2013-05-18 18:00:00
8:25 PM,57.2,46.4,67,29.77,6.2,NE,8.1,-,N/A,,Mostly Cloudy,50,2013-05-18 18:25:00
9:25 PM,53.6,48.2,82,29.77,6.2,NNE,5.8,-,N/A,,Mostly Cloudy,30,2013-05-18 19:25:00
10:25 PM,51.8,46.4,82,29.77,6.2,NE,6.9,-,N/A,,Clear,40,2013-05-18 20:25:00
11:00 PM,51,46,78,29.79,11,North,6.7,,,,,10,2013-05-18 21:00:00
11:25 PM,50.0,46.4,87,29.77,6.2,NNE,6.9,-,N/A,,Partly Cloudy,30,2013-05-18 21:25:00